• Em Portugal
  • Lista de países
  • Para 7 dias
  • Temperatura da água
  • Mapas de satélite
  • Mapa do tempo
  • Widgets de tempo
  • user-avatar
    Iniciar Sessão

    Previsão horária em Taunsvil

    Hoje, 17 Agosto, Sexta-feira

    Tempo Temperatura Precipitação Vento Pressão Humidade
    00:00 +19°C° 0 mm 1 m/s 754 mmHg 93%
    01:00 +19°C° 0 mm 1 m/s 754 mmHg 94%
    02:00 +19°C° 0 mm 1 m/s 754 mmHg 94%
    03:00 +19°C° 0 mm 1 m/s 754 mmHg 95%
    04:00 +18°C° 0 mm 1 m/s 754 mmHg 95%
    05:00 +18°C° 0 mm 1 m/s 754 mmHg 95%
    06:00 +18°C° 0 mm 1 m/s 754 mmHg 95%
    07:00 +18°C° 0 mm 1 m/s 755 mmHg 94%
    08:00 +22°C° 0 mm 1 m/s 755 mmHg 77%
    09:00 +26°C° 0 mm 1 m/s 755 mmHg 59%
    10:00 +30°C° 0 mm 1 m/s 755 mmHg 39%
    11:00 +31°C° 0 mm 1 m/s 755 mmHg 33%
    12:00 +32°C° 0 mm 2 m/s 754 mmHg 27%
    13:00 +34°C° 0 mm 3 m/s 754 mmHg 21%
    14:00 +33°C° 0 mm 3 m/s 753 mmHg 24%
    15:00 +31°C° 0 mm 3 m/s 753 mmHg 27%
    16:00 +30°C° 0 mm 4 m/s 752 mmHg 30%
    17:00 +27°C° 0 mm 3 m/s 752 mmHg 45%
    18:00 +24°C° 0 mm 3 m/s 753 mmHg 60%
    19:00 +20°C° 0 mm 2 m/s 753 mmHg 75%
    20:00 +20°C° 0 mm 2 m/s 753 mmHg 79%
    21:00 +19°C° 0 mm 2 m/s 754 mmHg 83%
    22:00 +20°C° 0 mm 1 m/s 755 mmHg 87%
    23:00 +19°C° 0 mm 2 m/s 755 mmHg 89%

    Amanhã, 18 Agosto, Sábado

    Tempo Temperatura Precipitação Vento Pressão Humidade
    00:00 +18°C° 0 mm 2 m/s 755 mmHg 91%
    01:00 +18°C° 0 mm 2 m/s 755 mmHg 93%
    02:00 +19°C° 0 mm 1 m/s 755 mmHg 94%
    03:00 +19°C° 0 mm 1 m/s 755 mmHg 94%
    04:00 +19°C° 0 mm 1 m/s 755 mmHg 94%
    05:00 +18°C° 0 mm 1 m/s 755 mmHg 94%
    06:00 +18°C° 0 mm 1 m/s 755 mmHg 94%
    07:00 +17°C° 0 mm 2 m/s 756 mmHg 94%
    08:00 +22°C° 0 mm 1 m/s 756 mmHg 77%
    09:00 +26°C° 0 mm 1 m/s 756 mmHg 59%
    10:00 +29°C° 0 mm 1 m/s 756 mmHg 42%
    11:00 +30°C° 0 mm 2 m/s 756 mmHg 36%
    12:00 +31°C° 0 mm 2 m/s 755 mmHg 30%
    13:00 +32°C° 0 mm 2 m/s 754 mmHg 24%
    14:00 +33°C° 0 mm 3 m/s 754 mmHg 25%
    15:00 +33°C° 0 mm 3 m/s 753 mmHg 26%
    16:00 +32°C° 0 mm 4 m/s 753 mmHg 28%
    17:00 +28°C° 0 mm 3 m/s 753 mmHg 41%
    18:00 +25°C° 0 mm 3 m/s 754 mmHg 55%
    19:00 +21°C° 0 mm 2 m/s 754 mmHg 68%
    20:00 +21°C° 0 mm 2 m/s 755 mmHg 75%
    21:00 +20°C° 0 mm 2 m/s 755 mmHg 81%
    22:00 +20°C° 0 mm 1 m/s 756 mmHg 88%
    23:00 +20°C° 0 mm 1 m/s 756 mmHg 89%

    Depois de amanhã, 19 Agosto, Domingo

    Tempo Temperatura Precipitação Vento Pressão Humidade
    00:00 +19°C° 0 mm 1 m/s 756 mmHg 91%
    01:00 +19°C° 0 mm 1 m/s 756 mmHg 92%
    02:00 +18°C° 0 mm 2 m/s 756 mmHg 92%
    03:00 +18°C° 0 mm 2 m/s 756 mmHg 92%
    04:00 +17°C° 0 mm 3 m/s 755 mmHg 92%
    05:00 +17°C° 0 mm 4 m/s 756 mmHg 90%
    06:00 +17°C° 0 mm 4 m/s 756 mmHg 88%
    07:00 +17°C° 0 mm 4 m/s 757 mmHg 87%
    08:00 +20°C° 0 mm 5 m/s 757 mmHg 63%
    09:00 +25°C° 0 mm 5 m/s 757 mmHg 40%
    10:00 +28°C° 0 mm 6 m/s 757 mmHg 17%
    11:00 +29°C° 0 mm 5 m/s 757 mmHg 16%
    12:00 +30°C° 0 mm 5 m/s 756 mmHg 15%
    13:00 +32°C° 0 mm 4 m/s 755 mmHg 14%
    14:00 +32°C° 0 mm 4 m/s 755 mmHg 15%
    15:00 +32°C° 0 mm 4 m/s 755 mmHg 15%
    16:00 +32°C° 0 mm 5 m/s 754 mmHg 16%
    17:00 +28°C° 0 mm 4 m/s 755 mmHg 21%
    18:00 +25°C° 0 mm 4 m/s 755 mmHg 26%
    19:00 +22°C° 0 mm 3 m/s 756 mmHg 32%
    20:00 +21°C° 0 mm 3 m/s 756 mmHg 34%
    21:00 +20°C° 0 mm 3 m/s 757 mmHg 37%
    22:00 +19°C° 0 mm 3 m/s 757 mmHg 39%
    23:00 +18°C° 0 mm 3 m/s 757 mmHg 35%

    20 Agosto, Segunda-feira

    Tempo Temperatura Precipitação Vento Pressão Humidade
    00:00 +17°C° 0 mm 4 m/s 757 mmHg 30%
    01:00 +15°C° 0 mm 5 m/s 757 mmHg 25%
    02:00 +15°C° 0 mm 5 m/s 757 mmHg 25%
    03:00 +14°C° 0 mm 6 m/s 757 mmHg 25%
    04:00 +14°C° 0 mm 7 m/s 757 mmHg 26%
    05:00 +12°C° 0 mm 7 m/s 758 mmHg 27%
    06:00 +12°C° 0 mm 7 m/s 758 mmHg 28%
    07:00 +11°C° 0 mm 7 m/s 759 mmHg 29%
    08:00 +15°C° 0 mm 6 m/s 759 mmHg 25%
    09:00 +17°C° 0 mm 6 m/s 759 mmHg 22%
    10:00 +21°C° 0 mm 6 m/s 759 mmHg 18%
    11:00 +22°C° 0 mm 5 m/s 758 mmHg 15%
    12:00 +25°C° 0 mm 5 m/s 758 mmHg 13%
    13:00 +27°C° 0 mm 4 m/s 757 mmHg 11%
    14:00 +27°C° 0 mm 4 m/s 756 mmHg 12%
    15:00 +27°C° 0 mm 4 m/s 756 mmHg 13%
    16:00 +27°C° 0 mm 5 m/s 755 mmHg 13%
    17:00 +23°C° 0 mm 4 m/s 756 mmHg 26%
    18:00 +20°C° 0 mm 4 m/s 756 mmHg 38%
    19:00 +17°C° 0 mm 3 m/s 757 mmHg 51%
    20:00 +16°C° 0 mm 3 m/s 757 mmHg 60%
    21:00 +14°C° 0 mm 3 m/s 758 mmHg 68%
    22:00 +13°C° 0 mm 3 m/s 758 mmHg 77%
    23:00 +13°C° 0 mm 3 m/s 758 mmHg 80%

    21 Agosto, Terça-feira

    Tempo Temperatura Precipitação Vento Pressão Humidade
    00:00 +12°C° 0 mm 3 m/s 757 mmHg 83%
    01:00 +12°C° 0 mm 3 m/s 757 mmHg 85%
    02:00 +12°C° 0 mm 3 m/s 757 mmHg 84%
    03:00 +11°C° 0 mm 3 m/s 757 mmHg 82%
    04:00 +11°C° 0 mm 3 m/s 757 mmHg 80%
    05:00 +11°C° 0 mm 3 m/s 757 mmHg 74%
    06:00 +11°C° 0 mm 3 m/s 758 mmHg 67%
    07:00 +10°C° 0 mm 3 m/s 758 mmHg 61%
    08:00 +14°C° 0 mm 4 m/s 758 mmHg 52%
    09:00 +18°C° 0 mm 4 m/s 758 mmHg 43%
    10:00 +22°C° 0 mm 4 m/s 758 mmHg 34%
    11:00 +23°C° 0 mm 4 m/s 758 mmHg 32%
    12:00 +25°C° 0 mm 4 m/s 757 mmHg 30%
    13:00 +26°C° 0 mm 4 m/s 756 mmHg 29%
    14:00 +26°C° 0 mm 5 m/s 755 mmHg 33%
    15:00 +25°C° 0 mm 5 m/s 755 mmHg 38%
    16:00 +23°C° 0 mm 5 m/s 754 mmHg 43%
    17:00 +21°C° 0 mm 4 m/s 755 mmHg 52%
    18:00 +19°C° 0 mm 4 m/s 756 mmHg 61%
    19:00 +17°C° 0 mm 3 m/s 756 mmHg 69%
    20:00 +17°C° 0 mm 3 m/s 756 mmHg 73%
    21:00 +17°C° 0 mm 3 m/s 757 mmHg 76%
    22:00 +16°C° 0 mm 3 m/s 757 mmHg 79%
    23:00 +16°C° 0 mm 3 m/s 757 mmHg 81%

    22 Agosto, Quarta-feira

    Tempo Temperatura Precipitação Vento Pressão Humidade
    00:00 +16°C° 0 mm 3 m/s 756 mmHg 83%
    01:00 +16°C° 0 mm 3 m/s 756 mmHg 86%
    02:00 +16°C° 0 mm 3 m/s 756 mmHg 87%
    03:00 +14°C° 0 mm 3 m/s 756 mmHg 89%
    04:00 +14°C° 0 mm 3 m/s 756 mmHg 90%
    05:00 +14°C° 0 mm 3 m/s 756 mmHg 90%
    06:00 +14°C° 0 mm 3 m/s 757 mmHg 90%
    07:00 +14°C° 0 mm 3 m/s 757 mmHg 91%
    08:00 +18°C° 0 mm 4 m/s 757 mmHg 78%
    09:00 +21°C° 0 mm 4 m/s 757 mmHg 66%
    10:00 +25°C° 0 mm 4 m/s 757 mmHg 54%
    11:00 +26°C° 0 mm 4 m/s 756 mmHg 51%
    12:00 +27°C° 0 mm 5 m/s 756 mmHg 48%
    13:00 +28°C° 0 mm 5 m/s 755 mmHg 46%
    14:00 +27°C° 0 mm 5 m/s 754 mmHg 49%
    15:00 +26°C° 0 mm 4 m/s 754 mmHg 52%
    16:00 +25°C° 0 mm 4 m/s 754 mmHg 55%
    17:00 +23°C° 0 mm 4 m/s 754 mmHg 64%
    18:00 +21°C° 0 mm 4 m/s 755 mmHg 73%
    19:00 +19°C° 0 mm 4 m/s 755 mmHg 82%
    20:00 +19°C° 0 mm 4 m/s 755 mmHg 84%
    21:00 +19°C° 0 mm 4 m/s 756 mmHg 86%
    22:00 +19°C° 0 mm 4 m/s 756 mmHg 89%
    23:00 +19°C° 0 mm 4 m/s 756 mmHg 90%
    Mostrar mais